Weather History for West Palm Beach, FL

Change the Weather History Date:

Wednesday, October 19, 2011

  Actual Average Record
Temperature  
Mean Temperature 75 °F 78 °F  
Max Temperature 82 °F 85 °F 92 °F (1989)
Min Temperature 67 °F 71 °F 52 °F (1927)
Degree Days  
Heating Degree Days 0 0  
Month to date heating degree days 0 0  
Since 1 July heating degree days 0 0  
Cooling Degree Days 10 13  
Month to date cooling degree days 288 273  
Year to date cooling degree days 4180 3481  
Growing Degree Days 26 (Base 50)    
Moisture  
Dew Point 74 °F    
Average Humidity 82    
Maximum Humidity 97    
Minimum Humidity 66    
Precipitation  
Precipitation 0.06 in 0.14 in 7.36 in (1924)
Month to date precipitation 3.54 3.33  
Year to date precipitation 39.31 52.40  
Snow  
Snow 0.00 in - - ()
Month to date snowfall 0.0  
Since 1 July snowfall 0.0  
Since 1 September snowfall 0.0  
Snow Depth 0.00 in    
Sea Level Pressure  
Sea Level Pressure 29.67 in    
Wind  
Wind Speed 15 mph (SW)    
Max Wind Speed 25 mph    
Max Gust Speed 35 mph    
Visibility 10 miles    
Events Rain    
T = Trace of Precipitation, MM = Missing Value Source: NWS Daily Summary

Daily Weather History Graph

Daily Weather History Graph

Search for Another Location

Airport:

Trip Planner

Search our weather history database for the weather conditions in past years. The results will help you decide how hot, cold, wet, or windy it might be!

Date:

Astronomy

Oct. 19, 2011 Rise Set
Actual Time 7:21 AM EDT 6:48 PM EDT
Civil Twilight 6:58 AM EDT 7:11 PM EDT
Nautical Twilight 6:31 AM EDT 7:39 PM EDT
Astronomical Twilight 6:04 AM EDT 8:05 PM EDT
Moon No Moon Rise 1:37 PM EDT (10/19)
Length of Visible Light 12h 13m
Length of Day
11h 26m
Waning Gibbous, 55% of the Moon is Illuminated
Oct 19
Waning Gibbous
Oct 19
Last Quarter
Oct 26
New
Nov 2
First Quarter
Nov 10
Full

Hourly Weather History & Observations

Time (EDT) Temp. Heat Index Dew Point Humidity Pressure Visibility Wind Dir Wind Speed Gust Speed Precip Events Conditions
12:53 AM 80.1 °F 85.4 °F 75.9 °F 87% 29.63 in 10.0 mi SSW 18.4 mph 31.1 mph 0.00 in Rain Light Rain
1:53 AM 81.0 °F 87.3 °F 75.9 °F 85% 29.62 in 10.0 mi South 18.4 mph 29.9 mph 0.00 in Rain Light Rain
2:38 AM 80.6 °F 87.1 °F 77.0 °F 89% 29.62 in 10.0 mi South 18.4 mph 25.3 mph 0.00 in Rain Light Rain
2:53 AM 81.0 °F 87.9 °F 77.0 °F 88% 29.61 in 10.0 mi SSW 16.1 mph 28.8 mph 0.00 in   Overcast
3:53 AM 81.0 °F 87.3 °F 75.9 °F 85% 29.60 in 10.0 mi South 15.0 mph 24.2 mph N/A   Overcast
4:53 AM 81.0 °F 87.3 °F 75.9 °F 85% 29.59 in 10.0 mi SSW 18.4 mph 27.6 mph 0.00 in Rain Light Rain
5:17 AM 80.6 °F 86.2 °F 75.2 °F 84% 29.58 in 10.0 mi South 19.6 mph 26.5 mph 0.00 in Rain Light Rain
5:53 AM 82.0 °F 89.4 °F 75.9 °F 82% 29.59 in 10.0 mi SSW 13.8 mph 29.9 mph 0.00 in Rain Light Rain
6:19 AM 80.6 °F 86.2 °F 75.2 °F 84% 29.60 in 10.0 mi South 16.1 mph 23.0 mph 0.00 in Rain Light Rain
6:53 AM 80.1 °F 85.4 °F 75.9 °F 87% 29.61 in 10.0 mi SSW 12.7 mph - 0.01 in Rain Light Rain
7:53 AM 81.0 °F 87.3 °F 75.9 °F 85% 29.61 in 10.0 mi South 20.7 mph 28.8 mph 0.00 in   Overcast
8:45 AM 80.6 °F 87.1 °F 77.0 °F 89% 29.62 in 10.0 mi SW 21.9 mph 28.8 mph 0.03 in Rain Light Rain
8:50 AM 78.8 °F - 77.0 °F 94% 29.63 in 10.0 mi SW 19.6 mph 28.8 mph 0.04 in Rain Light Rain
8:53 AM 79.0 °F - 77.0 °F 94% 29.62 in 10.0 mi SSW 19.6 mph 28.8 mph 0.04 in Rain Light Rain
9:19 AM 78.8 °F - 75.2 °F 89% 29.64 in 10.0 mi SSW 20.7 mph 32.2 mph 0.00 in   Overcast
9:46 AM 78.8 °F - 75.2 °F 89% 29.65 in 10.0 mi SW 17.3 mph 23.0 mph 0.00 in   Overcast
9:53 AM 78.1 °F - 75.9 °F 93% 29.65 in 10.0 mi SW 17.3 mph 24.2 mph 0.00 in Rain Light Rain
10:23 AM 78.8 °F - 75.2 °F 89% 29.66 in 10.0 mi SW 13.8 mph 24.2 mph 0.00 in Rain Light Rain
10:34 AM 78.8 °F - 75.2 °F 89% 29.66 in 10.0 mi SW 15.0 mph 21.9 mph 0.00 in   Overcast
10:47 AM 77.0 °F - 75.2 °F 94% 29.67 in 10.0 mi SSW 13.8 mph 23.0 mph 0.00 in Rain Light Rain
10:53 AM 77.0 °F - 75.0 °F 94% 29.67 in 10.0 mi SW 17.3 mph 21.9 mph 0.00 in Rain Light Rain
11:22 AM 77.0 °F - 75.2 °F 94% 29.67 in 10.0 mi SW 15.0 mph - 0.01 in   Overcast
11:49 AM 78.8 °F - 75.2 °F 89% 29.67 in 10.0 mi SW 15.0 mph 23.0 mph 0.01 in   Overcast
11:53 AM 78.1 °F - 75.0 °F 90% 29.67 in 10.0 mi SW 15.0 mph 21.9 mph 0.01 in   Overcast
12:53 PM 78.1 °F - 75.0 °F 90% 29.69 in 10.0 mi SSW 17.3 mph 21.9 mph N/A   Overcast
1:04 PM 78.8 °F - 75.2 °F 89% 29.69 in 10.0 mi SSW 18.4 mph 24.2 mph N/A   Overcast
1:27 PM 78.8 °F - 75.2 °F 89% 29.67 in 10.0 mi SW 13.8 mph - N/A   Overcast
1:53 PM 78.1 °F - 75.0 °F 90% 29.67 in 10.0 mi SW 13.8 mph 20.7 mph N/A   Overcast
2:53 PM 78.1 °F - 75.9 °F 93% 29.66 in 10.0 mi SW 10.4 mph - N/A   Overcast
3:53 PM 79.0 °F - 75.9 °F 90% 29.66 in 10.0 mi SW 15.0 mph 20.7 mph N/A   Overcast
4:53 PM 79.0 °F - 75.9 °F 90% 29.67 in 10.0 mi SW 11.5 mph - N/A   Overcast
5:53 PM 79.0 °F - 75.0 °F 88% 29.70 in 10.0 mi SW 10.4 mph - N/A   Overcast
6:53 PM 78.1 °F - 71.1 °F 79% 29.73 in 10.0 mi WNW 16.1 mph - N/A   Overcast
7:53 PM 75.0 °F - 68.0 °F 79% 29.76 in 10.0 mi West 11.5 mph - N/A   Mostly Cloudy
8:53 PM 73.0 °F - 66.9 °F 81% 29.80 in 10.0 mi West 10.4 mph - N/A   Mostly Cloudy
9:53 PM 72.0 °F - 64.9 °F 78% 29.83 in 10.0 mi WNW 16.1 mph - N/A   Mostly Cloudy
10:53 PM 70.0 °F - 60.1 °F 71% 29.86 in 10.0 mi WNW 15.0 mph - N/A   Mostly Cloudy
11:53 PM 69.1 °F - 57.9 °F 68% 29.89 in 10.0 mi WNW 20.7 mph - N/A   Mostly Cloudy